Location: Ballingbuur
(53.0000°N, 5.7667°E)
Time: 08:27:50
(UTC+00:00)

Cosmos 1356 - Pass Details

Date: 18 April 2021
Orbit: 438 x 442 km, 81.1° (Epoch: 17 May)

Event Time Altitude Azimuth Distance (km) Brightness Sun altitude
Rises 20:58:12 0° 334° (NNW) 2,452 8.6 -17.5°
Reaches altitude 10° 21:00:39 10° 317° (NW) 1,575 7.5 -17.8°
Maximum altitude 21:03:11 20° 269° (W) 1,104 5.8 -18.0°
Drops below altitude 10° 21:05:43 10° 221° (SW) 1,562 6.0 -18.3°
Enters shadow 21:05:55 - 219° (SW) 1,626 6.1 -18.3°
